Location: DaltonSkyGazer Observatory
(42.4858°N, 73.1565°W)
Time: 16:40:38
(UTC-04:00)

Helios 1B - Visible Passes

Search period start: 30 April 2017 00:00
Search period end: 10 May 2017 00:00
Orbit: 620 x 624 km, 98.1° (Epoch: 29 April)

Date Brightness Start Highest point End Pass type
(mag) Time Alt. Az. Time Alt. Az. Time Alt. Az.
30 Apr 6.9 00:11:09 18° NE 00:11:09 18° NE 00:13:00 10° NNE visible
30 Apr 6.8 01:48:21 19° NW 01:48:21 19° NW 01:49:46 10° NNW visible
01 May 6.7 00:29:11 23° NNE 00:29:11 23° NNE 00:31:22 10° N visible
01 May 7.0 02:06:23 15° NW 02:06:23 15° NW 02:07:19 10° NW visible
02 May 6.4 00:47:13 28° NNE 00:47:13 28° NNE 00:49:34 10° N visible
02 May 7.2 02:24:26 10° NW 02:24:26 10° NW 02:24:33 10° NW visible
03 May 6.3 01:05:15 31° N 01:05:15 31° N 01:07:36 10° N visible
03 May 7.2 23:46:06 12° NE 23:46:06 12° NE 23:47:12 10° NE visible
04 May 6.3 01:23:18 30° NNW 01:23:18 30° NNW 01:25:32 10° NNW visible
05 May 6.9 00:04:08 17° NE 00:04:08 17° NE 00:06:13 10° NNE visible
05 May 6.4 01:41:20 25° NW 01:41:20 25° NW 01:43:20 10° NNW visible
06 May 6.6 00:22:11 23° NE 00:22:11 23° NE 00:24:42 10° NNE visible
06 May 6.7 01:59:23 19° NW 01:59:23 19° NW 02:00:59 10° NW visible
07 May 6.2 00:40:13 30° NNE 00:40:13 30° NNE 00:42:57 10° N visible
07 May 6.9 02:17:25 14° WNW 02:17:25 14° WNW 02:18:22 10° NW visible
08 May 5.9 00:58:16 37° NNE 00:58:16 37° NNE 01:01:03 10° N visible
09 May 5.9 01:16:18 38° NNW 01:16:18 38° NNW 01:19:02 10° NNW visible
09 May 6.9 23:57:09 15° ENE 23:57:09 15° ENE 23:59:21 10° NNE visible
